TimeCST,TemperatureF,Dew PointF,Humidity,Sea Level PressureIn,VisibilityMPH,Wind Direction,Wind SpeedMPH,Gust SpeedMPH,PrecipitationIn,Events,Conditions,WindDirDegrees,DateUTC
12:53 AM,35.1,32.0,89,29.90,7.0,SW,9.2,-,N/A,,Overcast,230,2013-01-06 06:53:00
1:14 AM,35.6,32.0,87,29.88,7.0,SW,10.4,-,N/A,,Overcast,230,2013-01-06 07:14:00
1:53 AM,35.1,32.0,89,29.90,7.0,SW,6.9,-,N/A,,Overcast,230,2013-01-06 07:53:00
2:02 AM,35.6,32.0,87,29.88,7.0,SW,10.4,17.3,N/A,,Overcast,230,2013-01-06 08:02:00
2:53 AM,34.0,30.9,89,29.90,7.0,WSW,8.1,-,N/A,,Overcast,240,2013-01-06 08:53:00
3:37 AM,33.8,30.2,87,29.87,6.0,WSW,8.1,-,N/A,,Overcast,240,2013-01-06 09:37:00
4:22 AM,33.8,26.6,75,29.87,9.0,West,12.7,21.9,N/A,,Mostly Cloudy,260,2013-01-06 10:22:00
4:53 AM,32.0,26.1,79,29.91,8.0,West,10.4,-,N/A,,Mostly Cloudy,260,2013-01-06 10:53:00
5:09 AM,30.2,24.8,80,29.89,8.0,West,11.5,18.4,N/A,,Overcast,280,2013-01-06 11:09:00
5:53 AM,30.0,24.1,79,29.94,8.0,West,10.4,17.3,N/A,,Overcast,270,2013-01-06 11:53:00
6:53 AM,28.0,21.9,78,29.97,6.0,NW,8.1,-,N/A,,Haze,310,2013-01-06 12:53:00
7:25 AM,26.6,19.4,74,29.96,5.0,WNW,9.2,-,N/A,,Haze,290,2013-01-06 13:25:00
7:53 AM,25.0,18.0,75,29.99,5.0,WNW,10.4,-,N/A,,Haze,290,2013-01-06 13:53:00
8:53 AM,26.1,19.0,75,30.03,5.0,WNW,12.7,-,N/A,,Haze,290,2013-01-06 14:53:00
9:53 AM,26.1,19.9,78,30.06,6.0,WNW,13.8,24.2,N/A,,Haze,290,2013-01-06 15:53:00
10:53 AM,28.0,21.9,78,30.08,8.0,WNW,16.1,23.0,N/A,,Overcast,300,2013-01-06 16:53:00
11:22 AM,28.4,21.2,74,30.06,9.0,NW,11.5,21.9,N/A,,Overcast,310,2013-01-06 17:22:00
11:53 AM,30.0,21.9,72,30.09,10.0,NW,15.0,20.7,N/A,,Overcast,310,2013-01-06 17:53:00
12:53 PM,30.0,21.9,72,30.11,10.0,NW,11.5,21.9,N/A,,Overcast,310,2013-01-06 18:53:00
1:53 PM,30.9,21.9,69,30.13,10.0,NW,13.8,-,N/A,,Overcast,310,2013-01-06 19:53:00
2:53 PM,32.0,21.9,66,30.18,10.0,WNW,9.2,-,N/A,,Clear,290,2013-01-06 20:53:00
3:53 PM,30.9,21.0,67,30.21,10.0,NW,6.9,-,N/A,,Clear,310,2013-01-06 21:53:00
4:53 PM,28.9,21.0,72,30.24,10.0,West,5.8,-,N/A,,Clear,280,2013-01-06 22:53:00
5:53 PM,27.0,19.9,75,30.28,10.0,WNW,6.9,-,N/A,,Clear,290,2013-01-06 23:53:00
6:53 PM,25.0,19.9,81,30.30,10.0,West,4.6,-,N/A,,Clear,270,2013-01-07 00:53:00
7:53 PM,23.0,19.0,85,30.31,8.0,WSW,3.5,-,N/A,,Clear,240,2013-01-07 01:53:00
8:53 PM,23.0,18.0,81,30.31,7.0,SW,4.6,-,N/A,,Clear,220,2013-01-07 02:53:00
9:53 PM,21.9,18.0,85,30.33,6.0,WSW,5.8,-,N/A,,Clear,250,2013-01-07 03:53:00
10:53 PM,21.0,17.1,85,30.33,5.0,WSW,4.6,-,N/A,,Clear,240,2013-01-07 04:53:00
11:53 PM,19.9,16.0,85,30.33,5.0,WSW,4.6,-,N/A,,Clear,250,2013-01-07 05:53:00